• In Spain
  • List of Countries
  • For 7 days
  • Water Temperature
  • Satellite Maps
  • Weather Map
  • Weather Widgets
  • user-avatar
    Login

    Hourly Weather Dobra

    Today, 24 November, Friday

    Time Temperature Precipitation Wind Pressure Humidity
    00:00 +7°C° 0 mm 5 mps 749 mmHg 85%
    01:00 +8°C° 0 mm 3 mps 749 mmHg 92%
    02:00 +8°C° 0 mm 3 mps 750 mmHg 92%
    03:00 +7°C° 0 mm 3 mps 750 mmHg 93%
    04:00 +7°C° 0 mm 3 mps 750 mmHg 94%
    05:00 +7°C° 0 mm 3 mps 750 mmHg 94%
    06:00 +7°C° 0 mm 3 mps 750 mmHg 95%
    07:00 +6°C° 0 mm 2 mps 750 mmHg 95%
    08:00 +7°C° 0.1 mm 3 mps 750 mmHg 94%
    09:00 +7°C° 0.1 mm 3 mps 749 mmHg 93%
    10:00 +7°C° 0.1 mm 4 mps 749 mmHg 92%
    11:00 +8°C° 0.3 mm 5 mps 749 mmHg 88%
    12:00 +9°C° 0.3 mm 5 mps 748 mmHg 84%
    13:00 +10°C° 0.3 mm 6 mps 748 mmHg 79%
    14:00 +9°C° 0.2 mm 5 mps 748 mmHg 82%
    15:00 +9°C° 0.2 mm 5 mps 748 mmHg 84%
    16:00 +8°C° 0.2 mm 4 mps 748 mmHg 86%
    17:00 +7°C° 0.3 mm 4 mps 749 mmHg 87%
    18:00 +7°C° 0.3 mm 3 mps 749 mmHg 88%
    19:00 +5°C° 0.3 mm 3 mps 749 mmHg 90%
    20:00 +5°C° 0 mm 3 mps 750 mmHg 91%
    21:00 +4°C° 0 mm 3 mps 750 mmHg 92%
    22:00 +5°C° 0 mm 2 mps 751 mmHg 93%
    23:00 +4°C° 0 mm 2 mps 751 mmHg 93%

    Tomorrow, 25 November, Saturday

    Time Temperature Precipitation Wind Pressure Humidity
    00:00 +4°C° 0 mm 2 mps 751 mmHg 94%
    01:00 +4°C° 0 mm 2 mps 752 mmHg 95%
    02:00 +4°C° 0 mm 2 mps 751 mmHg 94%
    03:00 +5°C° 0 mm 1 mps 751 mmHg 94%
    04:00 +4°C° 0 mm 1 mps 751 mmHg 94%
    05:00 +5°C° 0.1 mm 1 mps 751 mmHg 94%
    06:00 +5°C° 0.1 mm 1 mps 750 mmHg 94%
    07:00 +4°C° 0.1 mm 2 mps 750 mmHg 93%
    08:00 +4°C° 0.7 mm 2 mps 749 mmHg 93%
    09:00 +3°C° 0.7 mm 3 mps 748 mmHg 92%
    10:00 +3°C° 0.7 mm 3 mps 748 mmHg 91%
    11:00 +3°C° 2.3 mm 3 mps 747 mmHg 92%
    12:00 +3°C° 2.3 mm 3 mps 747 mmHg 93%
    13:00 +3°C° 2.3 mm 3 mps 746 mmHg 93%
    14:00 +3°C° 1.8 mm 4 mps 746 mmHg 92%
    15:00 +2°C° 1.8 mm 5 mps 746 mmHg 91%
    16:00 +2°C° 1.8 mm 5 mps 746 mmHg 90%
    17:00 +2°C° 0.3 mm 6 mps 746 mmHg 87%
    18:00 +3°C° 0.3 mm 6 mps 747 mmHg 83%
    19:00 +3°C° 0.3 mm 6 mps 747 mmHg 80%
    20:00 +2°C° 0 mm 5 mps 748 mmHg 81%
    21:00 +2°C° 0 mm 5 mps 749 mmHg 82%
    22:00 +3°C° 0 mm 4 mps 750 mmHg 83%
    23:00 +1°C° 0 mm 4 mps 750 mmHg 85%

    Day after tomorrow, 26 November, Sunday

    Time Temperature Precipitation Wind Pressure Humidity
    00:00 +1°C° 0 mm 4 mps 751 mmHg 88%
    01:00 0°C° 0 mm 4 mps 751 mmHg 90%
    02:00 0°C° 0 mm 4 mps 751 mmHg 91%
    03:00 0°C° 0 mm 4 mps 752 mmHg 91%
    04:00 0°C° 0 mm 4 mps 752 mmHg 92%
    05:00 -1°C° 0 mm 4 mps 752 mmHg 91%
    06:00 -1°C° 0 mm 4 mps 753 mmHg 91%
    07:00 -1°C° 0 mm 5 mps 753 mmHg 90%
    08:00 0°C° 0 mm 5 mps 753 mmHg 88%
    09:00 -1°C° 0 mm 6 mps 754 mmHg 85%
    10:00 -1°C° 0 mm 6 mps 754 mmHg 82%
    11:00 +1°C° 0 mm 6 mps 754 mmHg 80%
    12:00 +2°C° 0 mm 6 mps 754 mmHg 78%
    13:00 +2°C° 0 mm 6 mps 754 mmHg 76%
    14:00 +2°C° 0 mm 6 mps 755 mmHg 78%
    15:00 +1°C° 0 mm 5 mps 755 mmHg 79%
    16:00 +1°C° 0 mm 5 mps 755 mmHg 81%
    17:00 +1°C° 0 mm 5 mps 755 mmHg 82%
    18:00 0°C° 0 mm 5 mps 755 mmHg 82%
    19:00 -1°C° 0 mm 6 mps 755 mmHg 83%
    20:00 -1°C° 0 mm 6 mps 755 mmHg 83%
    21:00 -1°C° 0 mm 6 mps 755 mmHg 84%
    22:00 -1°C° 0 mm 6 mps 755 mmHg 85%
    23:00 -1°C° 0.2 mm 6 mps 755 mmHg 85%

    27 November, Monday

    Time Temperature Precipitation Wind Pressure Humidity
    00:00 +1°C° 0.2 mm 6 mps 755 mmHg 85%
    01:00 +1°C° 0.2 mm 6 mps 755 mmHg 85%
    02:00 +1°C° 0 mm 6 mps 755 mmHg 87%
    03:00 -1°C° 0 mm 6 mps 755 mmHg 88%
    04:00 -1°C° 0 mm 6 mps 755 mmHg 89%
    05:00 +1°C° 0 mm 6 mps 756 mmHg 88%
    06:00 +1°C° 0 mm 6 mps 756 mmHg 87%
    07:00 +1°C° 0 mm 6 mps 756 mmHg 85%
    08:00 +1°C° 0.1 mm 6 mps 756 mmHg 85%
    09:00 +1°C° 0.1 mm 6 mps 757 mmHg 84%
    10:00 +1°C° 0.1 mm 6 mps 757 mmHg 83%
    11:00 +2°C° 0 mm 6 mps 757 mmHg 82%
    12:00 +2°C° 0 mm 6 mps 757 mmHg 81%
    13:00 +2°C° 0 mm 5 mps 757 mmHg 80%
    14:00 +2°C° 0 mm 5 mps 757 mmHg 81%
    15:00 +2°C° 0 mm 5 mps 757 mmHg 82%
    16:00 +1°C° 0 mm 5 mps 756 mmHg 84%
    17:00 +1°C° 0 mm 5 mps 756 mmHg 84%
    18:00 +1°C° 0 mm 6 mps 756 mmHg 84%
    19:00 +1°C° 0 mm 6 mps 755 mmHg 84%
    20:00 +1°C° 0 mm 6 mps 755 mmHg 84%
    21:00 +1°C° 0 mm 6 mps 754 mmHg 84%
    22:00 0°C° 0 mm 7 mps 754 mmHg 84%
    23:00 0°C° 0.5 mm 7 mps 753 mmHg 84%

    28 November, Tuesday

    Time Temperature Precipitation Wind Pressure Humidity
    00:00 0°C° 0.5 mm 7 mps 752 mmHg 83%
    01:00 0°C° 0.5 mm 7 mps 752 mmHg 83%
    02:00 0°C° 0.5 mm 7 mps 751 mmHg 83%
    03:00 0°C° 0.5 mm 7 mps 751 mmHg 84%
    04:00 0°C° 0.5 mm 7 mps 751 mmHg 84%
    05:00 +1°C° 0.4 mm 6 mps 750 mmHg 85%
    06:00 +1°C° 0.4 mm 6 mps 750 mmHg 85%
    07:00 +2°C° 0.4 mm 6 mps 750 mmHg 86%
    08:00 +2°C° 0.3 mm 6 mps 750 mmHg 86%
    09:00 +2°C° 0.3 mm 5 mps 750 mmHg 86%
    10:00 +2°C° 0.3 mm 5 mps 750 mmHg 86%
    11:00 +2°C° 0.4 mm 5 mps 749 mmHg 85%
    12:00 +2°C° 0.4 mm 5 mps 749 mmHg 85%
    13:00 +2°C° 0.4 mm 5 mps 749 mmHg 85%
    14:00 +2°C° 0.3 mm 5 mps 748 mmHg 85%
    15:00 +2°C° 0.3 mm 5 mps 748 mmHg 84%
    16:00 +2°C° 0.3 mm 5 mps 747 mmHg 84%
    17:00 +2°C° 0.2 mm 5 mps 747 mmHg 82%
    18:00 +2°C° 0.2 mm 5 mps 747 mmHg 81%
    19:00 +1°C° 0.2 mm 5 mps 747 mmHg 79%
    20:00 +1°C° 0.2 mm 5 mps 747 mmHg 79%
    21:00 +1°C° 0.2 mm 5 mps 746 mmHg 78%
    22:00 +1°C° 0.2 mm 5 mps 746 mmHg 77%
    23:00 +1°C° 0.2 mm 4 mps 746 mmHg 77%

    29 November, Wednesday

    Time Temperature Precipitation Wind Pressure Humidity
    00:00 +1°C° 0.2 mm 4 mps 746 mmHg 77%
    01:00 0°C° 0.2 mm 4 mps 745 mmHg 77%
    02:00 0°C° 0.2 mm 4 mps 745 mmHg 78%
    03:00 0°C° 0.2 mm 4 mps 745 mmHg 79%
    04:00 0°C° 0.2 mm 4 mps 744 mmHg 79%
    05:00 0°C° 0.2 mm 4 mps 744 mmHg 79%
    06:00 0°C° 0.2 mm 4 mps 744 mmHg 79%
    07:00 0°C° 0.2 mm 4 mps 743 mmHg 79%
    08:00 0°C° 0.1 mm 4 mps 743 mmHg 78%
    09:00 +1°C° 0.1 mm 4 mps 743 mmHg 78%
    10:00 +1°C° 0.1 mm 4 mps 743 mmHg 78%
    11:00 +1°C° 0.1 mm 4 mps 743 mmHg 77%
    12:00 +3°C° 0.1 mm 4 mps 743 mmHg 77%
    13:00 +3°C° 0.1 mm 4 mps 743 mmHg 77%
    14:00 +3°C° 0.3 mm 4 mps 743 mmHg 80%
    15:00 +3°C° 0.3 mm 4 mps 742 mmHg 84%
    16:00 +1°C° 0.3 mm 4 mps 742 mmHg 87%
    17:00 +1°C° 0.2 mm 4 mps 743 mmHg 88%
    18:00 +1°C° 0.2 mm 4 mps 743 mmHg 89%
    19:00 +1°C° 0.2 mm 4 mps 743 mmHg 91%
    20:00 +1°C° 0.1 mm 4 mps 743 mmHg 91%
    21:00 +1°C° 0.1 mm 4 mps 743 mmHg 91%
    22:00 +1°C° 0.1 mm 4 mps 744 mmHg 91%
    23:00 +1°C° 0 mm 4 mps 744 mmHg 92%
    Show more